Station Historical Data
Daily Summary for September 27, 2017 Units:  English    Metric   Both
« Previous Day
Next Day »
Daily Weekly Monthly Yearly Custom
  High: Low: Average:
Temperature: 89.3 °F 64.4 °F 75.4 °F
Dew Point: 68.8 °F 62.0 °F 64.9 °F
Humidity: 93% 44% 73%
Wind Speed: 10.0mph 1.0mph 3.8mph
Wind Gust: 10.0mph - -
Wind- - WNW
Pressure: 29.98 in 29.91 in -
Precipitation: 0.00 in    
Historical Graphs
 
 
Tabular Data for September 27, 2017
Time Temperature Dew Point Pressure Wind Wind Speed Wind Gust Humidity Rainfall Rate (Hourly) solar Conditions
00:00 69.7 °F 64.7 °F 29.95 in WSW 1.0 mph 1.0 mph 84% 0.00 in WeatherDisplay:10.37 W/m2 CLR
00:05 69.6 °F 64.5 °F 29.95 in WSW 1.0 mph 1.0 mph 84% 0.00 in WeatherDisplay:10.37 W/m2 CLR
00:10 69.3 °F 64.6 °F 29.95 in WSW 1.0 mph 1.0 mph 85% 0.00 in WeatherDisplay:10.37 W/m2 CLR
00:15 69.1 °F 64.4 °F 29.95 in WSW 1.0 mph 1.0 mph 85% 0.00 in WeatherDisplay:10.37 W/m2 CLR
00:20 68.9 °F 64.2 °F 29.95 in WSW 1.0 mph 1.0 mph 85% 0.00 in WeatherDisplay:10.37 W/m2 CLR
00:30 68.7 °F 64.3 °F 29.95 in WSW 1.0 mph 1.0 mph 86% 0.00 in WeatherDisplay:10.37 W/m2 CLR
00:35 68.6 °F 64.3 °F 29.95 in WSW 1.0 mph 1.0 mph 86% 0.00 in WeatherDisplay:10.37 W/m2 CLR
00:40 68.6 °F 64.2 °F 29.95 in WSW 1.0 mph 1.0 mph 86% 0.00 in WeatherDisplay:10.37 W/m2 CLR
00:45 68.5 °F 64.2 °F 29.95 in WSW 1.0 mph 1.0 mph 86% 0.00 in WeatherDisplay:10.37 W/m2 CLR
00:50 68.4 °F 64.0 °F 29.95 in WSW 1.0 mph 1.0 mph 86% 0.00 in WeatherDisplay:10.37 W/m2 CLR
00:55 68.3 °F 64.0 °F 29.95 in WSW 1.0 mph 1.0 mph 86% 0.00 in WeatherDisplay:10.37 W/m2 CLR
01:00 68.3 °F 63.9 °F 29.95 in WSW 1.0 mph 1.0 mph 86% 0.00 in WeatherDisplay:10.37 W/m2 CLR
01:05 68.1 °F 64.1 °F 29.95 in WSW 1.0 mph 1.0 mph 87% 0.00 in WeatherDisplay:10.37 W/m2 CLR
01:10 68.1 °F 64.1 °F 29.95 in WSW 1.0 mph 1.0 mph 87% 0.00 in WeatherDisplay:10.37 W/m2 CLR
01:15 68.0 °F 64.0 °F 29.95 in WSW 1.0 mph 1.0 mph 87% 0.00 in WeatherDisplay:10.37 W/m2 CLR
01:20 68.0 °F 64.0 °F 29.95 in WSW 1.0 mph 1.0 mph 87% 0.00 in WeatherDisplay:10.37 W/m2 CLR
01:25 67.9 °F 63.9 °F 29.95 in WSW 1.0 mph 1.0 mph 87% 0.00 in WeatherDisplay:10.37 W/m2 CLR
01:30 67.8 °F 63.8 °F 29.95 in WSW 1.0 mph 1.0 mph 87% 0.00 in WeatherDisplay:10.37 W/m2 CLR
01:35 67.8 °F 63.8 °F 29.95 in WSW 1.0 mph 1.0 mph 87% 0.00 in WeatherDisplay:10.37 W/m2 CLR
01:40 67.7 °F 63.7 °F 29.95 in WSW 1.0 mph 1.0 mph 87% 0.00 in WeatherDisplay:10.37 W/m2 CLR
01:45 67.7 °F 64.0 °F 29.95 in WSW 1.0 mph 1.0 mph 88% 0.00 in WeatherDisplay:10.37 W/m2 CLR
01:50 67.6 °F 63.9 °F 29.95 in WSW 1.0 mph 1.0 mph 88% 0.00 in WeatherDisplay:10.37 W/m2 CLR
02:00 67.5 °F 63.8 °F 29.95 in WSW 1.0 mph 1.0 mph 88% 0.00 in WeatherDisplay:10.37 W/m2 CLR
02:05 67.5 °F 63.8 °F 29.94 in WSW 1.0 mph 1.0 mph 88% 0.00 in WeatherDisplay:10.37 W/m2 CLR
02:10 67.5 °F 63.8 °F 29.95 in WSW 1.0 mph 1.0 mph 88% 0.00 in WeatherDisplay:10.37 W/m2 CLR
02:15 67.4 °F 63.7 °F 29.95 in WSW 1.0 mph 1.0 mph 88% 0.00 in WeatherDisplay:10.37 W/m2 CLR
02:20 67.3 °F 63.6 °F 29.95 in SW 1.0 mph 1.0 mph 88% 0.00 in WeatherDisplay:10.37 W/m2 CLR
02:25 67.2 °F 63.5 °F 29.95 in SW 1.0 mph 1.0 mph 88% 0.00 in WeatherDisplay:10.37 W/m2 CLR
02:30 67.2 °F 63.8 °F 29.95 in SW 1.0 mph 1.0 mph 89% 0.00 in WeatherDisplay:10.37 W/m2 CLR
02:40 67.1 °F 63.7 °F 29.95 in SW 1.0 mph 1.0 mph 89% 0.00 in WeatherDisplay:10.37 W/m2 CLR
02:45 67.0 °F 63.6 °F 29.95 in SW 1.0 mph 1.0 mph 89% 0.00 in WeatherDisplay:10.37 W/m2 CLR
02:50 67.0 °F 63.6 °F 29.95 in SW 1.0 mph 1.0 mph 89% 0.00 in WeatherDisplay:10.37 W/m2 CLR
02:55 66.9 °F 63.6 °F 29.95 in SW 1.0 mph 1.0 mph 89% 0.00 in WeatherDisplay:10.37 W/m2 CLR
03:00 66.8 °F 63.5 °F 29.95 in SW 1.0 mph 1.0 mph 89% 0.00 in WeatherDisplay:10.37 W/m2 CLR
03:05 66.8 °F 63.5 °F 29.94 in SW 1.0 mph 1.0 mph 89% 0.00 in WeatherDisplay:10.37 W/m2 CLR
03:10 66.7 °F 63.4 °F 29.94 in SW 1.0 mph 1.0 mph 89% 0.00 in WeatherDisplay:10.37 W/m2 CLR
03:15 66.7 °F 63.4 °F 29.94 in SW 1.0 mph 1.0 mph 89% 0.00 in WeatherDisplay:10.37 W/m2 CLR
03:20 66.6 °F 63.3 °F 29.94 in SW 1.0 mph 1.0 mph 89% 0.00 in WeatherDisplay:10.37 W/m2 CLR
03:25 66.6 °F 63.6 °F 29.94 in SW 1.0 mph 1.0 mph 90% 0.00 in WeatherDisplay:10.37 W/m2 CLR
03:30 66.6 °F 63.6 °F 29.94 in SW 1.0 mph 1.0 mph 90% 0.00 in WeatherDisplay:10.37 W/m2 CLR
03:35 66.5 °F 63.5 °F 29.94 in SW 1.0 mph 1.0 mph 90% 0.00 in WeatherDisplay:10.37 W/m2 CLR
03:40 66.5 °F 63.5 °F 29.94 in SW 1.0 mph 1.0 mph 90% 0.00 in WeatherDisplay:10.37 W/m2 CLR
03:45 66.4 °F 63.4 °F 29.94 in SW 1.0 mph 1.0 mph 90% 0.00 in WeatherDisplay:10.37 W/m2 CLR
03:50 66.4 °F 63.4 °F 29.94 in SW 1.0 mph 1.0 mph 90% 0.00 in WeatherDisplay:10.37 W/m2 CLR
03:55 66.3 °F 63.3 °F 29.94 in SW 1.0 mph 1.0 mph 90% 0.00 in WeatherDisplay:10.37 W/m2 CLR
04:00 66.2 °F 63.2 °F 29.94 in SW 1.0 mph 1.0 mph 90% 0.00 in WeatherDisplay:10.37 W/m2 CLR
04:05 66.2 °F 63.2 °F 29.94 in SW 1.0 mph 1.0 mph 90% 0.00 in WeatherDisplay:10.37 W/m2 CLR
04:10 66.1 °F 63.1 °F 29.94 in SW 1.0 mph 1.0 mph 90% 0.00 in WeatherDisplay:10.37 W/m2 CLR
04:15 66.1 °F 63.1 °F 29.94 in WSW 2.0 mph 2.0 mph 90% 0.00 in WeatherDisplay:10.37 W/m2 CLR
04:20 66.0 °F 63.0 °F 29.94 in WSW 2.0 mph 2.0 mph 90% 0.00 in WeatherDisplay:10.37 W/m2 CLR
04:25 66.0 °F 63.0 °F 29.94 in WSW 2.0 mph 2.0 mph 90% 0.00 in WeatherDisplay:10.37 W/m2 CLR
04:30 65.9 °F 63.2 °F 29.94 in WSW 2.0 mph 2.0 mph 91% 0.00 in WeatherDisplay:10.37 W/m2 CLR
04:35 65.9 °F 63.2 °F 29.94 in WSW 2.0 mph 2.0 mph 91% 0.00 in WeatherDisplay:10.37 W/m2 CLR
04:40 65.8 °F 63.1 °F 29.94 in WSW 2.0 mph 2.0 mph 91% 0.00 in WeatherDisplay:10.37 W/m2 CLR
04:45 65.7 °F 63.0 °F 29.94 in WSW 2.0 mph 2.0 mph 91% 0.00 in WeatherDisplay:10.37 W/m2 CLR
04:50 65.7 °F 63.0 °F 29.94 in WSW 2.0 mph 2.0 mph 91% 0.00 in WeatherDisplay:10.37 W/m2 CLR
04:55 65.6 °F 62.9 °F 29.94 in WSW 2.0 mph 2.0 mph 91% 0.00 in WeatherDisplay:10.37 W/m2 CLR
05:00 65.6 °F 62.9 °F 29.94 in WSW 2.0 mph 2.0 mph 91% 0.00 in WeatherDisplay:10.37 W/m2 CLR
05:05 65.5 °F 62.8 °F 29.94 in WSW 2.0 mph 2.0 mph 91% 0.00 in WeatherDisplay:10.37 W/m2 CLR
05:15 65.5 °F 62.8 °F 29.94 in WSW 2.0 mph 2.0 mph 91% 0.00 in WeatherDisplay:10.37 W/m2 CLR
05:20 65.4 °F 62.7 °F 29.94 in WSW 2.0 mph 2.0 mph 91% 0.00 in WeatherDisplay:10.37 W/m2 CLR
05:25 65.3 °F 62.6 °F 29.94 in WSW 2.0 mph 2.0 mph 91% 0.00 in WeatherDisplay:10.37 W/m2 CLR
05:30 65.3 °F 62.6 °F 29.94 in WSW 2.0 mph 2.0 mph 91% 0.00 in WeatherDisplay:10.37 W/m2 CLR
05:40 65.2 °F 62.5 °F 29.94 in WSW 2.0 mph 2.0 mph 91% 0.00 in WeatherDisplay:10.37 W/m2 CLR
05:50 65.1 °F 62.4 °F 29.94 in WSW 2.0 mph 2.0 mph 91% 0.00 in WeatherDisplay:10.37 W/m2 CLR
05:55 65.1 °F 62.7 °F 29.94 in WSW 2.0 mph 2.0 mph 92% 0.00 in WeatherDisplay:10.37 W/m2 CLR
06:00 65.1 °F 62.7 °F 29.94 in WSW 2.0 mph 2.0 mph 92% 0.00 in WeatherDisplay:10.37 W/m2 CLR
06:05 65.1 °F 62.7 °F 29.94 in WSW 2.0 mph 2.0 mph 92% 0.00 in WeatherDisplay:10.37 W/m2 CLR
06:10 65.1 °F 62.7 °F 29.95 in WSW 2.0 mph 2.0 mph 92% 0.00 in WeatherDisplay:10.37 W/m2 CLR
06:15 65.0 °F 62.6 °F 29.95 in West 2.0 mph 2.0 mph 92% 0.00 in WeatherDisplay:10.37 W/m2 CLR
06:20 65.0 °F 62.6 °F 29.94 in WNW 2.0 mph 2.0 mph 92% 0.00 in WeatherDisplay:10.37 W/m2 CLR
06:25 65.0 °F 62.6 °F 29.95 in WNW 2.0 mph 2.0 mph 92% 0.00 in WeatherDisplay:10.37 W/m2 CLR
06:30 64.9 °F 62.5 °F 29.95 in WNW 2.0 mph 2.0 mph 92% 0.00 in WeatherDisplay:10.37 W/m2 CLR
06:40 64.9 °F 62.5 °F 29.95 in WNW 2.0 mph 2.0 mph 92% 0.00 in WeatherDisplay:10.37 W/m2 CLR
06:45 64.8 °F 62.4 °F 29.95 in WNW 2.0 mph 2.0 mph 92% 0.00 in WeatherDisplay:10.37 W/m2 CLR
06:50 64.8 °F 62.4 °F 29.95 in WNW 2.0 mph 2.0 mph 92% 0.00 in WeatherDisplay:10.37 W/m2 CLR
06:55 64.8 °F 62.4 °F 29.95 in WNW 2.0 mph 2.0 mph 92% 0.00 in WeatherDisplay:10.37 W/m2 CLR
07:00 64.7 °F 62.4 °F 29.95 in WNW 2.0 mph 2.0 mph 92% 0.00 in WeatherDisplay:10.37 W/m2 CLR
07:05 64.7 °F 62.3 °F 29.95 in WNW 2.0 mph 2.0 mph 92% 0.00 in WeatherDisplay:10.37 W/m2 CLR
07:10 64.7 °F 62.3 °F 29.95 in WNW 2.0 mph 2.0 mph 92% 0.00 in WeatherDisplay:10.37 W/m2 CLR
07:15 64.6 °F 62.2 °F 29.95 in WNW 3.0 mph 3.0 mph 92% 0.00 in WeatherDisplay:10.37 W/m2 FEW
07:20 64.6 °F 62.2 °F 29.95 in West 3.0 mph 3.0 mph 92% 0.00 in WeatherDisplay:10.37 W/m2 FEW
07:25 64.5 °F 62.1 °F 29.95 in West 3.0 mph 3.0 mph 92% 0.00 in WeatherDisplay:10.37 W/m2 FEW
07:30 64.5 °F 62.1 °F 29.95 in West 3.0 mph 3.0 mph 92% 0.00 in WeatherDisplay:10.37 W/m2 FEW
07:35 64.5 °F 62.1 °F 29.95 in West 3.0 mph 3.0 mph 92% 0.00 in WeatherDisplay:10.37 W/m2 FEW
07:40 64.4 °F 62.0 °F 29.95 in West 3.0 mph 3.0 mph 92% 0.00 in WeatherDisplay:10.37 W/m2 FEW
07:45 64.4 °F 62.0 °F 29.96 in West 3.0 mph 3.0 mph 92% 0.00 in WeatherDisplay:10.37 W/m2 FEW
07:50 64.4 °F 62.0 °F 29.96 in West 3.0 mph 3.0 mph 92% 0.00 in WeatherDisplay:10.37 W/m2 FEW
07:55 64.4 °F 62.0 °F 29.96 in West 3.0 mph 3.0 mph 92% 0.00 in WeatherDisplay:10.37 W/m2 FEW
08:00 64.5 °F 62.1 °F 29.96 in West 3.0 mph 3.0 mph 92% 0.00 in WeatherDisplay:10.37 W/m2 FEW
08:05 64.6 °F 62.2 °F 29.96 in West 3.0 mph 3.0 mph 92% 0.00 in WeatherDisplay:10.37 W/m2 FEW
08:10 64.7 °F 62.6 °F 29.97 in West 3.0 mph 3.0 mph 93% 0.00 in WeatherDisplay:10.37 W/m2 FEW
08:15 64.9 °F 62.8 °F 29.97 in West 3.0 mph 3.0 mph 93% 0.00 in WeatherDisplay:10.37 W/m2 FEW
08:20 65.1 °F 63.0 °F 29.97 in West 3.0 mph 3.0 mph 93% 0.00 in WeatherDisplay:10.37 W/m2 FEW
08:25 65.2 °F 63.2 °F 29.97 in West 3.0 mph 3.0 mph 93% 0.00 in WeatherDisplay:10.37 W/m2 FEW
08:30 65.5 °F 63.4 °F 29.97 in West 3.0 mph 3.0 mph 93% 0.00 in WeatherDisplay:10.37 W/m2 FEW
08:40 66.0 °F 63.9 °F 29.97 in West 3.0 mph 3.0 mph 93% 0.00 in WeatherDisplay:10.37 W/m2 FEW
08:45 66.2 °F 64.1 °F 29.96 in West 3.0 mph 3.0 mph 93% 0.00 in WeatherDisplay:10.37 W/m2 FEW
08:50 66.5 °F 64.5 °F 29.97 in West 3.0 mph 3.0 mph 93% 0.00 in WeatherDisplay:10.37 W/m2 FEW
08:55 66.8 °F 64.8 °F 29.97 in West 3.0 mph 3.0 mph 93% 0.00 in WeatherDisplay:10.37 W/m2 FEW
09:00 67.2 °F 65.1 °F 29.97 in West 3.0 mph 3.0 mph 93% 0.00 in WeatherDisplay:10.37 W/m2 FEW
09:05 67.6 °F 65.5 °F 29.97 in West 3.0 mph 3.0 mph 93% 0.00 in WeatherDisplay:10.37 W/m2 FEW
09:10 68.0 °F 65.6 °F 29.97 in West 3.0 mph 3.0 mph 92% 0.00 in WeatherDisplay:10.37 W/m2 FEW
09:15 68.5 °F 66.1 °F 29.97 in West 3.0 mph 3.0 mph 92% 0.00 in WeatherDisplay:10.37 W/m2 CLR
09:20 68.9 °F 66.2 °F 29.97 in West 3.0 mph 3.0 mph 91% 0.00 in WeatherDisplay:10.37 W/m2 CLR
09:25 69.4 °F 66.3 °F 29.97 in West 3.0 mph 3.0 mph 90% 0.00 in WeatherDisplay:10.37 W/m2 CLR
09:30 70.1 °F 66.4 °F 29.97 in West 3.0 mph 3.0 mph 88% 0.00 in WeatherDisplay:10.37 W/m2 CLR
09:35 71.0 °F 66.6 °F 29.97 in West 3.0 mph 3.0 mph 86% 0.00 in WeatherDisplay:10.37 W/m2 CLR
09:40 71.5 °F 66.8 °F 29.97 in West 3.0 mph 3.0 mph 85% 0.00 in WeatherDisplay:10.37 W/m2 CLR
09:45 72.0 °F 66.5 °F 29.97 in West 3.0 mph 3.0 mph 83% 0.00 in WeatherDisplay:10.37 W/m2 CLR
09:55 72.9 °F 66.4 °F 29.97 in West 3.0 mph 3.0 mph 80% 0.00 in WeatherDisplay:10.37 W/m2 CLR
10:00 73.4 °F 66.5 °F 29.97 in West 3.0 mph 3.0 mph 79% 0.00 in WeatherDisplay:10.37 W/m2 CLR
10:05 74.0 °F 66.7 °F 29.97 in West 3.0 mph 3.0 mph 78% 0.00 in WeatherDisplay:10.37 W/m2 CLR
10:10 74.5 °F 67.2 °F 29.97 in West 3.0 mph 3.0 mph 78% 0.00 in WeatherDisplay:10.37 W/m2 CLR
10:15 75.1 °F 67.0 °F 29.97 in SW 1.0 mph 3.0 mph 76% 0.00 in WeatherDisplay:10.37 W/m2 CLR
10:20 75.6 °F 67.5 °F 29.97 in South 1.0 mph 1.0 mph 76% 0.00 in WeatherDisplay:10.37 W/m2 CLR
10:25 76.0 °F 67.1 °F 29.97 in South 1.0 mph 1.0 mph 74% 0.00 in WeatherDisplay:10.37 W/m2 CLR
10:30 76.3 °F 67.0 °F 29.97 in South 1.0 mph 1.0 mph 73% 0.00 in WeatherDisplay:10.37 W/m2 CLR
10:40 77.2 °F 67.0 °F 29.97 in South 1.0 mph 1.0 mph 71% 0.00 in WeatherDisplay:10.37 W/m2 CLR
10:45 77.8 °F 67.7 °F 29.97 in South 1.0 mph 1.0 mph 71% 0.00 in WeatherDisplay:10.37 W/m2 CLR
10:50 78.7 °F 68.5 °F 29.97 in South 1.0 mph 1.0 mph 71% 0.00 in WeatherDisplay:10.37 W/m2 CLR
10:55 79.7 °F 68.2 °F 29.98 in South 1.0 mph 1.0 mph 68% 0.00 in WeatherDisplay:10.37 W/m2 CLR
11:00 80.3 °F 68.3 °F 29.97 in South 1.0 mph 1.0 mph 67% 0.00 in WeatherDisplay:10.37 W/m2 CLR
11:05 81.1 °F 67.7 °F 29.97 in South 1.0 mph 1.0 mph 64% 0.00 in WeatherDisplay:10.37 W/m2 CLR
11:10 82.0 °F 68.6 °F 29.97 in South 1.0 mph 1.0 mph 64% 0.00 in WeatherDisplay:10.37 W/m2 CLR
11:15 82.6 °F 68.2 °F 29.97 in NW 2.0 mph 2.0 mph 62% 0.00 in WeatherDisplay:10.37 W/m2 CLR
11:20 83.4 °F 68.1 °F 29.97 in NNW 2.0 mph 2.0 mph 60% 0.00 in WeatherDisplay:10.37 W/m2 CLR
11:25 83.5 °F 67.7 °F 29.97 in NNW 2.0 mph 2.0 mph 59% 0.00 in WeatherDisplay:10.37 W/m2 CLR
11:30 83.9 °F 67.6 °F 29.97 in NNW 2.0 mph 2.0 mph 58% 0.00 in WeatherDisplay:10.37 W/m2 CLR
11:35 84.4 °F 68.0 °F 29.97 in NNW 2.0 mph 2.0 mph 58% 0.00 in WeatherDisplay:10.37 W/m2 CLR
11:40 84.7 °F 67.8 °F 29.97 in NNW 2.0 mph 2.0 mph 57% 0.00 in WeatherDisplay:10.37 W/m2 CLR
11:50 85.9 °F 67.3 °F 29.97 in NNW 2.0 mph 2.0 mph 54% 0.00 in WeatherDisplay:10.37 W/m2 CLR
11:55 86.5 °F 68.4 °F 29.97 in NNW 2.0 mph 2.0 mph 55% 0.00 in WeatherDisplay:10.37 W/m2 CLR
12:00 86.9 °F 68.2 °F 29.97 in NNW 2.0 mph 2.0 mph 54% 0.00 in WeatherDisplay:10.37 W/m2 CLR
12:05 87.0 °F 68.4 °F 29.96 in NNW 2.0 mph 2.0 mph 54% 0.00 in WeatherDisplay:10.37 W/m2 CLR
12:10 87.5 °F 68.8 °F 29.96 in NNW 2.0 mph 2.0 mph 54% 0.00 in WeatherDisplay:10.37 W/m2 CLR
12:15 88.1 °F 67.7 °F 29.96 in WNW 3.0 mph 3.0 mph 51% 0.00 in WeatherDisplay:10.37 W/m2 FEW
12:20 88.1 °F 67.7 °F 29.96 in WNW 3.0 mph 3.0 mph 51% 0.00 in WeatherDisplay:10.37 W/m2 FEW
12:25 87.9 °F 67.0 °F 29.96 in WNW 3.0 mph 3.0 mph 50% 0.00 in WeatherDisplay:10.37 W/m2 FEW
12:30 88.0 °F 68.1 °F 29.96 in WNW 3.0 mph 3.0 mph 52% 0.00 in WeatherDisplay:10.37 W/m2 FEW
12:35 88.2 °F 67.2 °F 29.96 in WNW 3.0 mph 3.0 mph 50% 0.00 in WeatherDisplay:10.37 W/m2 FEW
12:40 88.6 °F 67.0 °F 29.96 in WNW 3.0 mph 3.0 mph 49% 0.00 in WeatherDisplay:10.37 W/m2 FEW
12:45 88.7 °F 67.7 °F 29.96 in WNW 3.0 mph 3.0 mph 50% 0.00 in WeatherDisplay:10.37 W/m2 FEW
12:50 89.0 °F 66.8 °F 29.96 in WNW 3.0 mph 3.0 mph 48% 0.00 in WeatherDisplay:10.37 W/m2 FEW
12:55 88.7 °F 66.5 °F 29.96 in WNW 3.0 mph 3.0 mph 48% 0.00 in WeatherDisplay:10.37 W/m2 FEW
13:00 88.6 °F 66.4 °F 29.95 in WNW 3.0 mph 3.0 mph 48% 0.00 in WeatherDisplay:10.37 W/m2 FEW
13:05 88.3 °F 65.5 °F 29.95 in WNW 3.0 mph 3.0 mph 47% 0.00 in WeatherDisplay:10.37 W/m2 FEW
13:10 87.9 °F 65.8 °F 29.95 in WNW 3.0 mph 3.0 mph 48% 0.00 in WeatherDisplay:10.37 W/m2 FEW
13:15 87.5 °F 64.8 °F 29.95 in NW 5.0 mph 5.0 mph 47% 0.00 in WeatherDisplay:10.37 W/m2 SCT
13:20 86.8 °F 65.3 °F 29.95 in NNW 5.0 mph 5.0 mph 49% 0.00 in WeatherDisplay:10.37 W/m2 SCT
13:25 86.7 °F 65.8 °F 29.95 in NNW 5.0 mph 5.0 mph 50% 0.00 in WeatherDisplay:10.37 W/m2 SCT
13:30 86.8 °F 65.3 °F 29.95 in NNW 5.0 mph 5.0 mph 49% 0.00 in WeatherDisplay:10.37 W/m2 SCT
13:40 86.8 °F 67.1 °F 29.94 in NNW 5.0 mph 5.0 mph 52% 0.00 in WeatherDisplay:10.37 W/m2 SCT
13:45 87.0 °F 66.1 °F 29.94 in NNW 5.0 mph 5.0 mph 50% 0.00 in WeatherDisplay:10.37 W/m2 SCT
13:50 87.2 °F 65.7 °F 29.94 in NNW 5.0 mph 5.0 mph 49% 0.00 in WeatherDisplay:10.37 W/m2 SCT
13:55 88.0 °F 65.2 °F 29.94 in NNW 5.0 mph 5.0 mph 47% 0.00 in WeatherDisplay:10.37 W/m2 SCT
14:00 88.2 °F 64.8 °F 29.94 in NNW 5.0 mph 5.0 mph 46% 0.00 in WeatherDisplay:10.37 W/m2 SCT
14:05 88.0 °F 64.6 °F 29.94 in NNW 5.0 mph 5.0 mph 46% 0.00 in WeatherDisplay:10.37 W/m2 SCT
14:10 88.5 °F 65.1 °F 29.93 in NNW 5.0 mph 5.0 mph 46% 0.00 in WeatherDisplay:10.37 W/m2 SCT
14:15 88.6 °F 63.9 °F 29.93 in WNW 6.0 mph 6.0 mph 44% 0.00 in WeatherDisplay:10.37 W/m2 SCT
14:20 89.0 °F 65.5 °F 29.93 in West 6.0 mph 6.0 mph 46% 0.00 in WeatherDisplay:10.37 W/m2 SCT
14:25 89.3 °F 66.4 °F 29.93 in West 6.0 mph 6.0 mph 47% 0.00 in WeatherDisplay:10.37 W/m2 SCT
14:30 89.1 °F 64.3 °F 29.93 in West 6.0 mph 6.0 mph 44% 0.00 in WeatherDisplay:10.37 W/m2 SCT
14:35 88.8 °F 64.7 °F 29.93 in West 6.0 mph 6.0 mph 45% 0.00 in WeatherDisplay:10.37 W/m2 SCT
14:40 88.6 °F 65.1 °F 29.93 in West 6.0 mph 6.0 mph 46% 0.00 in WeatherDisplay:10.37 W/m2 SCT
14:45 88.1 °F 64.1 °F 29.93 in West 6.0 mph 6.0 mph 45% 0.00 in WeatherDisplay:10.37 W/m2 SCT
14:50 88.0 °F 65.2 °F 29.92 in West 6.0 mph 6.0 mph 47% 0.00 in WeatherDisplay:10.37 W/m2 SCT
14:55 88.3 °F 64.9 °F 29.92 in West 6.0 mph 6.0 mph 46% 0.00 in WeatherDisplay:10.37 W/m2 SCT
15:00 88.4 °F 65.0 °F 29.92 in West 6.0 mph 6.0 mph 46% 0.00 in WeatherDisplay:10.37 W/m2 SCT
15:05 88.4 °F 64.4 °F 29.92 in West 6.0 mph 6.0 mph 45% 0.00 in WeatherDisplay:10.37 W/m2 SCT
15:10 88.3 °F 66.1 °F 29.92 in West 6.0 mph 6.0 mph 48% 0.00 in WeatherDisplay:10.37 W/m2 SCT
15:15 88.3 °F 66.1 °F 29.92 in WNW 8.0 mph 8.0 mph 48% 0.00 in WeatherDisplay:10.37 W/m2 SCT
15:20 87.9 °F 64.5 °F 29.92 in NW 8.0 mph 8.0 mph 46% 0.00 in WeatherDisplay:10.37 W/m2 SCT
15:25 87.5 °F 65.4 °F 29.92 in NW 8.0 mph 8.0 mph 48% 0.00 in WeatherDisplay:10.37 W/m2 SCT
15:30 86.9 °F 63.6 °F 29.92 in NW 8.0 mph 8.0 mph 46% 0.00 in WeatherDisplay:10.37 W/m2 SCT
15:40 86.3 °F 63.1 °F 29.92 in NW 8.0 mph 8.0 mph 46% 0.00 in WeatherDisplay:10.37 W/m2 SCT
15:45 86.1 °F 63.5 °F 29.92 in NW 8.0 mph 8.0 mph 47% 0.00 in WeatherDisplay:10.37 W/m2 SCT
15:50 86.1 °F 64.1 °F 29.92 in NW 8.0 mph 8.0 mph 48% 0.00 in WeatherDisplay:10.37 W/m2 SCT
15:55 86.1 °F 62.9 °F 29.92 in NW 8.0 mph 8.0 mph 46% 0.00 in WeatherDisplay:10.37 W/m2 SCT
16:00 86.2 °F 63.6 °F 29.91 in NW 8.0 mph 8.0 mph 47% 0.00 in WeatherDisplay:10.37 W/m2 SCT
16:05 86.2 °F 65.4 °F 29.91 in NW 8.0 mph 8.0 mph 50% 0.00 in WeatherDisplay:10.37 W/m2 SCT
16:10 86.1 °F 62.9 °F 29.91 in NW 8.0 mph 8.0 mph 46% 0.00 in WeatherDisplay:10.37 W/m2 SCT
16:15 86.1 °F 64.7 °F 29.91 in WNW 7.0 mph 8.0 mph 49% 0.00 in WeatherDisplay:10.37 W/m2 FEW
16:20 86.3 °F 64.3 °F 29.91 in WNW 7.0 mph 7.0 mph 48% 0.00 in WeatherDisplay:10.37 W/m2 FEW
16:25 86.5 °F 63.9 °F 29.91 in WNW 7.0 mph 7.0 mph 47% 0.00 in WeatherDisplay:10.37 W/m2 FEW
16:30 86.7 °F 64.7 °F 29.91 in WNW 7.0 mph 7.0 mph 48% 0.00 in WeatherDisplay:10.37 W/m2 FEW
16:35 86.9 °F 63.6 °F 29.91 in WNW 7.0 mph 7.0 mph 46% 0.00 in WeatherDisplay:10.37 W/m2 FEW
16:45 86.6 °F 64.0 °F 29.91 in WNW 7.0 mph 7.0 mph 47% 0.00 in WeatherDisplay:10.37 W/m2 FEW
16:50 86.4 °F 65.0 °F 29.91 in WNW 7.0 mph 7.0 mph 49% 0.00 in WeatherDisplay:10.37 W/m2 FEW
16:55 86.3 °F 63.7 °F 29.91 in WNW 7.0 mph 7.0 mph 47% 0.00 in WeatherDisplay:10.37 W/m2 FEW
17:00 86.1 °F 62.9 °F 29.91 in WNW 7.0 mph 7.0 mph 46% 0.00 in WeatherDisplay:10.37 W/m2 FEW
17:05 85.9 °F 63.3 °F 29.91 in WNW 7.0 mph 7.0 mph 47% 0.00 in WeatherDisplay:10.37 W/m2 FEW
17:10 85.8 °F 63.8 °F 29.91 in WNW 7.0 mph 7.0 mph 48% 0.00 in WeatherDisplay:10.37 W/m2 FEW
17:15 85.6 °F 63.1 °F 29.91 in NW 10.0 mph 10.0 mph 47% 0.00 in WeatherDisplay:10.37 W/m2 FEW
17:20 85.3 °F 64.0 °F 29.91 in NNW 10.0 mph 10.0 mph 49% 0.00 in WeatherDisplay:10.37 W/m2 FEW
17:25 85.1 °F 64.9 °F 29.91 in NNW 10.0 mph 10.0 mph 51% 0.00 in WeatherDisplay:10.37 W/m2 FEW
17:30 85.0 °F 63.7 °F 29.91 in NNW 10.0 mph 10.0 mph 49% 0.00 in WeatherDisplay:10.37 W/m2 FEW
17:40 84.6 °F 63.3 °F 29.91 in NNW 10.0 mph 10.0 mph 49% 0.00 in WeatherDisplay:10.37 W/m2 FEW
17:45 84.2 °F 63.6 °F 29.91 in NNW 10.0 mph 10.0 mph 50% 0.00 in WeatherDisplay:10.37 W/m2 FEW
17:50 83.8 °F 63.7 °F 29.91 in NNW 10.0 mph 10.0 mph 51% 0.00 in WeatherDisplay:10.37 W/m2 FEW
17:55 83.4 °F 64.5 °F 29.91 in NNW 10.0 mph 10.0 mph 53% 0.00 in WeatherDisplay:10.37 W/m2 FEW
18:00 83.1 °F 64.2 °F 29.91 in NNW 10.0 mph 10.0 mph 53% 0.00 in WeatherDisplay:10.37 W/m2 FEW
18:05 82.8 °F 65.5 °F 29.91 in NNW 10.0 mph 10.0 mph 56% 0.00 in WeatherDisplay:10.37 W/m2 FEW
18:10 82.5 °F 65.7 °F 29.91 in NNW 10.0 mph 10.0 mph 57% 0.00 in WeatherDisplay:10.37 W/m2 FEW
18:15 82.0 °F 65.8 °F 29.91 in NW 8.0 mph 10.0 mph 58% 0.00 in WeatherDisplay:10.37 W/m2 FEW
18:20 81.8 °F 65.1 °F 29.91 in NW 8.0 mph 8.0 mph 57% 0.00 in WeatherDisplay:10.37 W/m2 FEW
18:25 81.6 °F 64.9 °F 29.91 in NW 8.0 mph 8.0 mph 57% 0.00 in WeatherDisplay:10.37 W/m2 FEW
18:30 81.5 °F 65.3 °F 29.91 in NW 8.0 mph 8.0 mph 58% 0.00 in WeatherDisplay:10.37 W/m2 FEW
18:40 81.1 °F 65.9 °F 29.91 in NW 8.0 mph 8.0 mph 60% 0.00 in WeatherDisplay:10.37 W/m2 FEW
18:45 80.9 °F 65.7 °F 29.91 in NW 8.0 mph 8.0 mph 60% 0.00 in WeatherDisplay:10.37 W/m2 FEW
18:50 80.7 °F 65.5 °F 29.91 in NW 8.0 mph 8.0 mph 60% 0.00 in WeatherDisplay:10.37 W/m2 FEW
18:55 80.5 °F 65.3 °F 29.91 in NW 8.0 mph 8.0 mph 60% 0.00 in WeatherDisplay:10.37 W/m2 FEW
19:00 80.2 °F 66.0 °F 29.91 in NW 8.0 mph 8.0 mph 62% 0.00 in WeatherDisplay:10.37 W/m2 FEW
19:10 79.4 °F 66.2 °F 29.92 in NW 8.0 mph 8.0 mph 64% 0.00 in WeatherDisplay:10.37 W/m2 FEW
19:15 79.1 °F 66.3 °F 29.92 in NW 6.0 mph 8.0 mph 65% 0.00 in WeatherDisplay:10.37 W/m2 FEW
19:20 78.8 °F 66.5 °F 29.92 in NNW 6.0 mph 6.0 mph 66% 0.00 in WeatherDisplay:10.37 W/m2 FEW
19:25 78.6 °F 66.3 °F 29.92 in NNW 6.0 mph 6.0 mph 66% 0.00 in WeatherDisplay:10.37 W/m2 FEW
19:30 78.4 °F 66.5 °F 29.92 in NNW 6.0 mph 6.0 mph 67% 0.00 in WeatherDisplay:10.37 W/m2 FEW
19:35 78.0 °F 66.2 °F 29.92 in NNW 6.0 mph 6.0 mph 67% 0.00 in WeatherDisplay:10.37 W/m2 FEW
19:40 77.8 °F 66.4 °F 29.92 in NNW 6.0 mph 6.0 mph 68% 0.00 in WeatherDisplay:10.37 W/m2 FEW
19:45 77.7 °F 66.3 °F 29.92 in NNW 6.0 mph 6.0 mph 68% 0.00 in WeatherDisplay:10.37 W/m2 FEW
19:50 77.5 °F 66.5 °F 29.92 in NNW 6.0 mph 6.0 mph 69% 0.00 in WeatherDisplay:10.37 W/m2 FEW
19:55 77.2 °F 66.7 °F 29.92 in NNW 6.0 mph 6.0 mph 70% 0.00 in WeatherDisplay:10.37 W/m2 FEW
20:00 77.0 °F 66.5 °F 29.92 in NNW 6.0 mph 6.0 mph 70% 0.00 in WeatherDisplay:10.37 W/m2 FEW
20:05 76.8 °F 66.3 °F 29.92 in NNW 6.0 mph 6.0 mph 70% 0.00 in WeatherDisplay:10.37 W/m2 FEW
20:10 76.6 °F 66.1 °F 29.92 in NNW 6.0 mph 6.0 mph 70% 0.00 in WeatherDisplay:10.37 W/m2 FEW
20:15 76.5 °F 66.4 °F 29.93 in NW 5.0 mph 6.0 mph 71% 0.00 in WeatherDisplay:10.37 W/m2 FEW
20:20 76.3 °F 66.6 °F 29.92 in NW 5.0 mph 5.0 mph 72% 0.00 in WeatherDisplay:10.37 W/m2 FEW
20:25 76.2 °F 66.5 °F 29.92 in NW 5.0 mph 5.0 mph 72% 0.00 in WeatherDisplay:10.37 W/m2 FEW
20:30 76.2 °F 66.5 °F 29.92 in NW 5.0 mph 5.0 mph 72% 0.00 in WeatherDisplay:10.37 W/m2 FEW
20:35 76.2 °F 66.5 °F 29.92 in NW 5.0 mph 5.0 mph 72% 0.00 in WeatherDisplay:10.37 W/m2 FEW
20:40 76.1 °F 66.4 °F 29.92 in NW 5.0 mph 5.0 mph 72% 0.00 in WeatherDisplay:10.37 W/m2 FEW
20:45 76.0 °F 66.3 °F 29.92 in NW 5.0 mph 5.0 mph 72% 0.00 in WeatherDisplay:10.37 W/m2 FEW
20:50 75.9 °F 66.6 °F 29.93 in NW 5.0 mph 5.0 mph 73% 0.00 in WeatherDisplay:10.37 W/m2 FEW
20:55 75.8 °F 66.5 °F 29.93 in NW 5.0 mph 5.0 mph 73% 0.00 in WeatherDisplay:10.37 W/m2 FEW
21:00 75.7 °F 66.4 °F 29.93 in NW 5.0 mph 5.0 mph 73% 0.00 in WeatherDisplay:10.37 W/m2 FEW
21:05 75.6 °F 66.3 °F 29.93 in NW 5.0 mph 5.0 mph 73% 0.00 in WeatherDisplay:10.37 W/m2 FEW
21:10 75.5 °F 66.2 °F 29.93 in NW 5.0 mph 5.0 mph 73% 0.00 in WeatherDisplay:10.37 W/m2 FEW
21:15 75.4 °F 66.5 °F 29.93 in WNW 3.0 mph 5.0 mph 74% 0.00 in WeatherDisplay:10.37 W/m2 CLR
21:20 75.3 °F 66.5 °F 29.93 in WNW 3.0 mph 3.0 mph 74% 0.00 in WeatherDisplay:10.37 W/m2 CLR
21:25 75.3 °F 66.4 °F 29.93 in WNW 3.0 mph 3.0 mph 74% 0.00 in WeatherDisplay:10.37 W/m2 CLR
21:30 75.3 °F 66.4 °F 29.93 in WNW 3.0 mph 3.0 mph 74% 0.00 in WeatherDisplay:10.37 W/m2 CLR
21:40 75.2 °F 66.7 °F 29.93 in WNW 3.0 mph 3.0 mph 75% 0.00 in WeatherDisplay:10.37 W/m2 CLR
21:50 75.2 °F 66.7 °F 29.93 in WNW 3.0 mph 3.0 mph 75% 0.00 in WeatherDisplay:10.37 W/m2 CLR
21:55 75.1 °F 66.3 °F 29.93 in WNW 3.0 mph 3.0 mph 74% 0.00 in WeatherDisplay:10.37 W/m2 CLR
22:00 75.1 °F 66.3 °F 29.93 in WNW 3.0 mph 3.0 mph 74% 0.00 in WeatherDisplay:10.37 W/m2 CLR
22:05 75.1 °F 66.2 °F 29.93 in WNW 3.0 mph 3.0 mph 74% 0.00 in WeatherDisplay:10.37 W/m2 CLR
22:10 75.0 °F 66.1 °F 29.93 in WNW 3.0 mph 3.0 mph 74% 0.00 in WeatherDisplay:10.37 W/m2 CLR
22:15 74.9 °F 66.4 °F 29.93 in WNW 5.0 mph 5.0 mph 75% 0.00 in WeatherDisplay:10.37 W/m2 CLR
22:20 74.8 °F 66.3 °F 29.94 in NW 5.0 mph 5.0 mph 75% 0.00 in WeatherDisplay:10.37 W/m2 CLR
22:25 74.6 °F 66.5 °F 29.94 in NW 5.0 mph 5.0 mph 76% 0.00 in WeatherDisplay:10.37 W/m2 CLR
22:30 74.5 °F 66.4 °F 29.94 in NW 5.0 mph 5.0 mph 76% 0.00 in WeatherDisplay:10.37 W/m2 CLR
22:40 74.2 °F 66.5 °F 29.94 in NW 5.0 mph 5.0 mph 77% 0.00 in WeatherDisplay:10.37 W/m2 CLR
22:45 74.1 °F 66.4 °F 29.94 in NW 5.0 mph 5.0 mph 77% 0.00 in WeatherDisplay:10.37 W/m2 CLR
22:50 73.9 °F 66.2 °F 29.94 in NW 5.0 mph 5.0 mph 77% 0.00 in WeatherDisplay:10.37 W/m2 CLR
22:55 73.8 °F 66.1 °F 29.94 in NW 5.0 mph 5.0 mph 77% 0.00 in WeatherDisplay:10.37 W/m2 CLR
23:00 73.7 °F 66.4 °F 29.94 in NW 5.0 mph 5.0 mph 78% 0.00 in WeatherDisplay:10.37 W/m2 CLR
23:05 73.6 °F 66.3 °F 29.94 in NW 5.0 mph 5.0 mph 78% 0.00 in WeatherDisplay:10.37 W/m2 CLR
23:10 73.5 °F 66.2 °F 29.94 in NW 5.0 mph 5.0 mph 78% 0.00 in WeatherDisplay:10.37 W/m2 CLR
23:15 73.4 °F 66.1 °F 29.94 in NW 5.0 mph 5.0 mph 78% 0.00 in WeatherDisplay:10.37 W/m2 CLR
23:20 73.4 °F 66.1 °F 29.94 in NW 5.0 mph 5.0 mph 78% 0.00 in WeatherDisplay:10.37 W/m2 CLR
23:30 73.3 °F 66.0 °F 29.94 in NW 5.0 mph 5.0 mph 78% 0.00 in WeatherDisplay:10.37 W/m2 CLR
23:35 73.3 °F 66.0 °F 29.93 in NW 5.0 mph 5.0 mph 78% 0.00 in WeatherDisplay:10.37 W/m2 CLR
23:40 73.3 °F 66.0 °F 29.94 in NW 5.0 mph 5.0 mph 78% 0.00 in WeatherDisplay:10.37 W/m2 CLR
23:45 73.2 °F 65.9 °F 29.94 in NW 5.0 mph 5.0 mph 78% 0.00 in WeatherDisplay:10.37 W/m2 CLR
23:50 73.2 °F 65.9 °F 29.94 in NW 5.0 mph 5.0 mph 78% 0.00 in WeatherDisplay:10.37 W/m2 CLR
23:55 73.1 °F 65.8 °F 29.93 in NW 5.0 mph 5.0 mph 78% 0.00 in WeatherDisplay:10.37 W/m2 CLR
Piedmont Bend
Compliments of Weather Underground - 4 mb